User: anonymous   Login
Location: Vancouver
(49.2500°N, 123.1330°W)
Time: 03:27:55
(UTC-07:00)
Language:

CZ-2C R/B - Orbit

View from above orbital plane
View from above orbital plane
View from above satellite
View from above satellite

Ground track
Ground track

The orbit data is extracted from the following two-line orbital elements,

1 28480U 04046B   17147.89779674 +.00000033 +00000-0 +28771-4 0  9998
2 28480 098.1947 245.3952 0140785 284.5681 182.1599 14.25637359651328
Epoch (UTC): 27 May 2017 21:32:49
Eccentricity: 0.0140785
inclination: 98.1947°
perigee height: 705 km
apogee height: 907 km
right ascension of ascending node: 245.3952°
argument of perigee: 284.5681°
revolutions per day: 14.25637359
mean anomaly at epoch: 182.1599°
orbit number at epoch: 65132

The dashed part of the orbit path shows where the satellite is in the earth's shadow,  

DLR